Regional Weather Roundup
Issued by NWS

Home | Current Version | Previous Version | Text Only | Print | Product List | Glossary Off
Versions: 1 2 3 4 5 6 7 8 9 10 11 12 13 14 15 16 17 18 19 20 21 22 23 24 25 26 27

000
ASUS45 KCYS 202010
RWRWY

WYOMING REGIONAL WEATHER ROUNDUP
NATIONAL WEATHER SERVICE CHEYENNE WY
100 PM MST TUE FEB 20 2018

NOTE:  "FAIR" INDICATES FEW OR NO CLOUDS BELOW 12,000 FEET
WITH NO SIGNIFICANT WEATHER AND/OR OBSTRUCTIONS TO VISIBILITY.

WYZ001-202100-
YELLOWSTONE NATIONAL PARK

CITY           SKY/WX    TMP DP  RH WIND       PRES   REMARKS
LK YELLOWSTONE   N/A     -7 -12  79 E3        29.78F
W YELLOWSTONE  NOT AVBL

$$
WYZ002>013-054>058-071-098>099-202100-
NORTHERN WYOMING

CITY           SKY/WX    TMP DP  RH WIND       PRES   REMARKS
JACKSON        CLOUDY    12  -1  56 S22       29.87S WCI  -7
CODY           FAIR      17  -8  32 CALM      29.94F
GREYBULL       FAIR      -2  -9  72 CALM      30.08
WORLAND        FAIR       2  -9  60 CALM      30.04S
SHERIDAN       FAIR       6  -7  54 CALM      30.02S
BUFFALO        FAIR       6  -8  52 SE5       29.94S WCI  -3
GILLETTE       FAIR       2  -7  66 SW9       30.00S WCI -13
HULETT         FAIR       5  -8  56 MISG      30.01S
NEWCASTLE      FAIR       5  -8  56 W8        30.04S WCI  -8

$$
WYZ014>020-022>026-101>103-202100-
CENTRAL WYOMING

CITY           SKY/WX    TMP DP  RH WIND       PRES   REMARKS
BIG PINEY      CLOUDY     5  -2  72 E5        29.88R WCI  -4
PINEDALE       FAIR      10   0  61 CALM      29.87S
DUBOIS           N/A    N/A N/A N/A MISG        N/A
LANDER         PTSUNNY    0  -5  79 E3        29.89F
RIVERTON       FAIR      -1 -10  65 E5        29.91S WCI -11
CASPER         FAIR       8  -1  66 SW16      29.92S WCI -10
DOUGLAS        FAIR      -1  -8  72 SE3       29.98S

$$
WYZ021-027>030-104>119-202100-
SOUTHERN WYOMING

CITY           SKY/WX    TMP DP  RH WIND       PRES   REMARKS
EVANSTON       PTSUNNY   12   4  70 SW16      29.89R WCI  -5
FORT BRIDGER   MOCLDY    12   6  76 W16       29.91  WCI  -4
ROCK SPRINGS   FAIR      11   2  67 W13       29.89  WCI  -4
DIXON          MOCLDY    15   5  64 W5        29.96S WCI   7
RAWLINS        FAIR      10   3  73 SW20G26   29.86R WCI  -9
SARATOGA       FAIR      14   3  62 W18       29.88R HAZE    WCI  -3
LARAMIE        FAIR       3  -5  69 CALM      29.80S
CHEYENNE       FAIR      19   6  57 NE7       29.86S WCI  10
TORRINGTON     FAIR      10  -3  55 N3        30.04F
PINE BLUFFS    FAIR       7  -4  61 SW6       29.98F WCI  -3

$$




USA.gov is the U.S. government's official web portal to all federal, state and local government web resources and services.